TimeEST,TemperatureF,Dew PointF,Humidity,Sea Level PressureIn,VisibilityMPH,Wind Direction,Wind SpeedMPH,Gust SpeedMPH,PrecipitationIn,Events,Conditions,WindDirDegrees,DateUTC
12:01 AM,78.8,73.4,83,29.97,10.0,SSE,8.1,-,N/A,,Scattered Clouds,160,2012-12-11 05:01:00
12:53 AM,78.1,73.0,84,29.96,10.0,SSE,6.9,-,N/A,,Partly Cloudy,160,2012-12-11 05:53:00
1:41 AM,78.8,73.4,83,29.96,10.0,South,6.9,-,N/A,,Mostly Cloudy,180,2012-12-11 06:41:00
1:53 AM,77.0,73.0,88,29.96,10.0,SSE,5.8,-,N/A,,Mostly Cloudy,150,2012-12-11 06:53:00
2:01 AM,78.8,73.4,83,29.95,10.0,SSE,5.8,-,N/A,,Scattered Clouds,160,2012-12-11 07:01:00
2:53 AM,77.0,73.4,89,29.96,10.0,South,6.9,-,N/A,,Scattered Clouds,180,2012-12-11 07:53:00
3:00 AM,77.0,73.4,89,29.95,10.0,South,4.6,-,N/A,Thunderstorm,Thunderstorm,170,2012-12-11 08:00:00
3:16 AM,77.0,73.4,89,29.95,10.0,SSW,4.6,-,N/A,Rain-Thunderstorm,Light Thunderstorms and Rain,200,2012-12-11 08:16:00
3:36 AM,75.2,71.6,89,29.96,10.0,West,13.8,-,0.01,Rain-Thunderstorm,Light Thunderstorms and Rain,260,2012-12-11 08:36:00
3:53 AM,73.0,69.1,87,29.99,10.0,SSW,10.4,-,0.15,Rain-Thunderstorm,Heavy Thunderstorms and Rain,210,2012-12-11 08:53:00
4:26 AM,71.6,69.8,94,29.94,10.0,SE,4.6,-,0.30,Rain-Thunderstorm,Light Thunderstorms and Rain,140,2012-12-11 09:26:00
4:53 AM,72.0,70.0,93,29.95,10.0,SSW,3.5,-,0.30,,Mostly Cloudy,200,2012-12-11 09:53:00
5:53 AM,71.1,69.1,93,29.98,10.0,SSE,3.5,-,N/A,,Clear,150,2012-12-11 10:53:00
6:53 AM,72.0,70.0,93,29.97,10.0,South,3.5,-,N/A,,Clear,180,2012-12-11 11:53:00
7:53 AM,73.0,71.1,93,30.01,10.0,West,6.9,-,N/A,,Scattered Clouds,270,2012-12-11 12:53:00
8:53 AM,78.1,73.9,87,30.02,10.0,SW,8.1,-,N/A,,Scattered Clouds,220,2012-12-11 13:53:00
9:53 AM,82.0,73.9,76,30.02,10.0,South,11.5,-,0.01,,Partly Cloudy,170,2012-12-11 14:53:00
10:06 AM,82.4,75.2,79,30.02,10.0,SSW,9.2,-,N/A,,Mostly Cloudy,210,2012-12-11 15:06:00
10:35 AM,82.4,73.4,74,30.02,10.0,SSW,11.5,-,N/A,,Scattered Clouds,200,2012-12-11 15:35:00
10:53 AM,82.9,73.0,72,30.03,10.0,South,11.5,-,N/A,,Partly Cloudy,190,2012-12-11 15:53:00
11:53 AM,84.9,73.0,67,30.02,10.0,South,8.1,-,N/A,,Scattered Clouds,190,2012-12-11 16:53:00
12:53 PM,87.1,72.0,61,29.98,10.0,SSE,9.2,-,N/A,,Scattered Clouds,160,2012-12-11 17:53:00
1:53 PM,84.0,73.9,72,29.96,10.0,SSE,11.5,-,N/A,,Scattered Clouds,150,2012-12-11 18:53:00
2:53 PM,82.0,73.9,76,29.96,10.0,SSE,8.1,-,0.01,Rain,Rain,150,2012-12-11 19:53:00
3:53 PM,82.9,75.0,77,29.95,10.0,SE,10.4,-,0.00,,Scattered Clouds,140,2012-12-11 20:53:00
4:53 PM,81.0,73.9,79,29.96,10.0,SSE,11.5,-,N/A,,Clear,150,2012-12-11 21:53:00
5:53 PM,79.0,73.9,84,29.96,10.0,SE,9.2,-,N/A,,Scattered Clouds,140,2012-12-11 22:53:00
6:53 PM,79.0,73.9,84,29.98,10.0,South,6.9,-,N/A,,Partly Cloudy,170,2012-12-11 23:53:00
7:53 PM,79.0,73.9,84,30.00,10.0,South,8.1,-,N/A,,Scattered Clouds,170,2012-12-12 00:53:00
8:33 PM,78.8,73.4,83,30.01,10.0,Calm,Calm,-,N/A,,Mostly Cloudy,0,2012-12-12 01:33:00
8:53 PM,79.0,73.9,84,30.04,10.0,Calm,Calm,-,N/A,,Mostly Cloudy,0,2012-12-12 01:53:00
9:26 PM,78.8,73.4,83,30.04,10.0,SSE,3.5,-,N/A,,Mostly Cloudy,160,2012-12-12 02:26:00
9:53 PM,78.1,73.9,87,30.06,10.0,Calm,Calm,-,N/A,,Clear,0,2012-12-12 02:53:00
10:53 PM,78.1,73.0,84,30.06,10.0,SE,3.5,-,N/A,,Scattered Clouds,130,2012-12-12 03:53:00
11:02 PM,78.8,73.4,83,30.06,10.0,Calm,Calm,-,N/A,,Mostly Cloudy,0,2012-12-12 04:02:00
11:44 PM,77.0,73.4,89,30.06,10.0,Calm,Calm,-,N/A,,Mostly Cloudy,0,2012-12-12 04:44:00
11:53 PM,77.0,73.9,90,30.07,10.0,Calm,Calm,-,N/A,,Mostly Cloudy,0,2012-12-12 04:53:00